Weather History for Perry, IA

Change the Weather History Date:

Wednesday, August 22, 2012

  Actual Average Record
Temperature  
Mean Temperature 74 °F -  
Max Temperature 93 °F 82 °F 95 °F (1948)
Min Temperature 54 °F 60 °F 46 °F (1950)
Cooling Degree Days 8    
Growing Degree Days 24 (Base 50)    
Moisture  
Dew Point 52 °F    
Average Humidity 55    
Maximum Humidity 84    
Minimum Humidity 17    
Precipitation  
Precipitation 0.00 in - - ()
Sea Level Pressure  
Sea Level Pressure 29.97 in    
Wind  
Wind Speed 7 mph (South)    
Max Wind Speed 20 mph    
Max Gust Speed 25 mph    
Visibility 10 miles    
Events      
Averages and records for this station are not official NWS values.
T = Trace of Precipitation, MM = Missing Value Source: NWS Daily Summary

Daily Weather History Graph

Daily Weather History Graph

Search for Another Location

Airport:

Trip Planner

Search our weather history database for the weather conditions in past years. The results will help you decide how hot, cold, wet, or windy it might be!

Date:

Astronomy

Aug. 22, 2012 Rise Set
Actual Time 6:32 AM CDT 8:05 PM CDT
Civil Twilight 6:03 AM CDT 8:34 PM CDT
Nautical Twilight 5:27 AM CDT 9:09 PM CDT
Astronomical Twilight 4:50 AM CDT 9:47 PM CDT
Moon 12:19 PM CDT (8/22) 10:40 PM CDT (8/22)
Length of Visible Light 14h 31m
Length of Day
13h 32m
Waxing Crescent, 29% of the Moon is Illuminated
Aug 22
Waxing Crescent
Aug 24
First Quarter
Aug 31
Full
Sep 8
Last Quarter
Sep 15
New

Hourly Weather History & Observations

Time (CDT) Temp. Heat Index Dew Point Humidity Pressure Visibility Wind Dir Wind Speed Gust Speed Precip Events Conditions
12:15 AM 61.0 °F - 53.6 °F 77% 30.01 in 10.0 mi SE 5.8 mph - N/A   Clear
12:35 AM 60.8 °F - 53.1 °F 76% 30.02 in 10.0 mi ESE 5.8 mph - N/A   Clear
12:55 AM 59.9 °F - 52.9 °F 78% 30.02 in 10.0 mi ESE 5.8 mph - N/A   Clear
1:15 AM 60.1 °F - 52.5 °F 76% 30.01 in 10.0 mi ESE 5.8 mph - N/A   Clear
1:35 AM 59.4 °F - 52.2 °F 77% 30.01 in 10.0 mi SE 6.9 mph - N/A   Clear
1:55 AM 59.5 °F - 52.0 °F 76% 30.01 in 10.0 mi ESE 5.8 mph - N/A   Clear
2:15 AM 59.4 °F - 51.4 °F 75% 30.00 in 10.0 mi SE 5.8 mph - N/A   Clear
2:35 AM 59.0 °F - 51.3 °F 75% 30.00 in 10.0 mi ESE 4.6 mph - N/A   Clear
2:55 AM 58.1 °F - 51.3 °F 78% 30.00 in 10.0 mi East 5.8 mph - N/A   Clear
3:15 AM 58.1 °F - 50.9 °F 77% 30.00 in 10.0 mi ESE 5.8 mph - N/A   Clear
3:35 AM 57.4 °F - 50.9 °F 79% 30.00 in 10.0 mi East 5.8 mph - N/A   Clear
3:55 AM 57.2 °F - 50.9 °F 79% 30.00 in 10.0 mi East 6.9 mph - N/A   Clear
4:15 AM 57.4 °F - 50.7 °F 78% 29.99 in 10.0 mi ESE 5.8 mph - N/A   Clear
4:35 AM 56.8 °F - 50.5 °F 79% 29.99 in 10.0 mi ESE 4.6 mph - N/A   Clear
4:55 AM 56.1 °F - 50.5 °F 82% 30.00 in 10.0 mi SE 3.5 mph - N/A   Clear
5:15 AM 55.4 °F - 50.7 °F 84% 30.00 in 10.0 mi East 5.8 mph - N/A   Clear
5:35 AM 55.6 °F - 50.2 °F 82% 29.99 in 10.0 mi ESE 4.6 mph - N/A   Clear
5:55 AM 55.2 °F - 50.0 °F 83% 29.99 in 10.0 mi SE 4.6 mph - N/A   Clear
6:15 AM 54.9 °F - 50.2 °F 84% 30.00 in 10.0 mi Calm Calm - N/A   Clear
6:55 AM 55.0 °F - 50.2 °F 84% 30.00 in 10.0 mi ESE 3.5 mph - N/A   Clear
7:15 AM 56.8 °F - 51.1 °F 81% 30.00 in 10.0 mi SE 3.5 mph - N/A   Clear
7:35 AM 59.2 °F - 52.2 °F 78% 30.01 in 10.0 mi SE 3.5 mph - N/A   Clear
7:55 AM 61.2 °F - 52.7 °F 74% 30.00 in 10.0 mi SSE 4.6 mph - N/A   Clear
8:15 AM 63.0 °F - 52.3 °F 68% 30.01 in 10.0 mi SSE 4.6 mph - N/A   Clear
8:35 AM 63.5 °F - 53.1 °F 69% 30.01 in 10.0 mi SSE 3.5 mph - N/A   Clear
8:55 AM 66.4 °F - 53.1 °F 62% 30.01 in 10.0 mi SSE 3.5 mph - N/A   Clear
9:15 AM 69.6 °F - 54.1 °F 58% 30.01 in 10.0 mi South 3.5 mph - N/A   Clear
9:35 AM 72.5 °F - 54.0 °F 52% 30.01 in 10.0 mi South 3.5 mph - N/A   Clear
9:55 AM 75.0 °F - 55.6 °F 51% 30.02 in 10.0 mi South 5.8 mph - N/A   Clear
10:15 AM 76.1 °F - 56.5 °F 50% 30.02 in 10.0 mi Calm Calm - N/A   Clear
10:35 AM 77.9 °F - 56.3 °F 47% 30.02 in 10.0 mi South 4.6 mph - N/A   Clear
10:55 AM 80.2 °F 80.8 °F 59.0 °F 48% 30.02 in 10.0 mi SSW 4.6 mph - N/A   Clear
11:15 AM 82.8 °F 82.8 °F 59.2 °F 45% 30.01 in 10.0 mi South 3.5 mph - N/A   Clear
11:35 AM 85.6 °F 84.8 °F 57.7 °F 39% 30.01 in 10.0 mi Calm Calm - N/A   Clear
11:55 AM 89.8 °F 87.7 °F 54.9 °F 30% 30.01 in 10.0 mi WSW 6.9 mph - N/A   Clear
12:15 PM 90.5 °F 88.1 °F 53.1 °F 28% 30.00 in 10.0 mi WSW 8.1 mph - N/A   Clear
12:35 PM 88.5 °F 86.5 °F 54.1 °F 31% 30.00 in 10.0 mi SW 5.8 mph - N/A   Clear
1:15 PM 92.1 °F - 44.8 °F 19% 29.98 in 10.0 mi SW 16.1 mph 24.2 mph N/A   Clear
1:35 PM 92.7 °F - 43.3 °F 18% 29.97 in 10.0 mi SW 11.5 mph 18.4 mph N/A   Clear
1:55 PM 93.2 °F - 43.0 °F 18% 29.97 in 10.0 mi SSW 17.3 mph 25.3 mph N/A   Clear
2:15 PM 93.2 °F - 42.1 °F 17% 29.97 in 10.0 mi SSW 15.0 mph 25.3 mph N/A   Clear
2:55 PM 93.2 °F - 44.8 °F 19% 29.95 in 10.0 mi SSW 17.3 mph 25.3 mph N/A   Clear
3:15 PM 93.4 °F - 43.0 °F 17% 29.95 in 10.0 mi SSW 17.3 mph 24.2 mph N/A   Clear
3:35 PM 93.2 °F - 41.7 °F 17% 29.94 in 10.0 mi SSW 18.4 mph 23.0 mph N/A   Clear
3:55 PM 92.8 °F - 42.4 °F 17% 29.94 in 10.0 mi SSW 19.6 mph 24.2 mph N/A   Clear
4:15 PM 92.7 °F - 43.5 °F 18% 29.94 in 10.0 mi SSW 13.8 mph 24.2 mph N/A   Clear
4:35 PM 91.6 °F - 42.8 °F 18% 29.94 in 10.0 mi SSW 16.1 mph 19.6 mph N/A   Clear
4:55 PM 90.9 °F - 45.1 °F 21% 29.94 in 10.0 mi SSW 12.7 mph 21.9 mph N/A   Clear
5:15 PM 89.1 °F - 48.2 °F 24% 29.94 in 10.0 mi SSW 10.4 mph 18.4 mph N/A   Clear
5:35 PM 89.2 °F - 50.0 °F 26% 29.93 in 10.0 mi SSW 10.4 mph 18.4 mph N/A   Clear
5:55 PM 90.3 °F - 49.5 °F 25% 29.93 in 10.0 mi SSW 13.8 mph 20.7 mph N/A   Clear
6:15 PM 89.1 °F - 45.5 °F 22% 29.93 in 10.0 mi SSW 11.5 mph - N/A   Clear
6:35 PM 87.4 °F - 48.4 °F 26% 29.92 in 10.0 mi South 6.9 mph - N/A   Clear
6:55 PM 84.7 °F 83.1 °F 53.2 °F 34% 29.92 in 10.0 mi SSW 6.9 mph - N/A   Clear
7:15 PM 81.1 °F 81.0 °F 56.3 °F 42% 29.92 in 10.0 mi SSW 6.9 mph - N/A   Clear
7:35 PM 79.3 °F - 55.0 °F 43% 29.92 in 10.0 mi SSW 8.1 mph - N/A   Clear
7:55 PM 75.0 °F - 58.1 °F 56% 29.92 in 10.0 mi SSW 6.9 mph - N/A   Clear
8:15 PM 73.0 °F - 59.0 °F 61% 29.92 in 10.0 mi South 5.8 mph - N/A   Clear
8:35 PM 71.4 °F - 59.5 °F 66% 29.92 in 10.0 mi South 6.9 mph - N/A   Clear
8:55 PM 70.7 °F - 58.5 °F 65% 29.93 in 10.0 mi South 4.6 mph - N/A   Clear
9:15 PM 70.7 °F - 57.6 °F 63% 29.93 in 10.0 mi South 4.6 mph - N/A   Clear
9:35 PM 69.1 °F - 57.9 °F 68% 29.93 in 10.0 mi SSE 4.6 mph - N/A   Clear
9:55 PM 68.5 °F - 57.4 °F 67% 29.93 in 10.0 mi SSE 5.8 mph - N/A   Clear
10:15 PM 67.5 °F - 57.4 °F 70% 29.93 in 10.0 mi SSE 4.6 mph - N/A   Clear
10:35 PM 67.5 °F - 56.7 °F 68% 29.94 in 10.0 mi SSE 5.8 mph - N/A   Clear
11:15 PM 65.8 °F - 56.3 °F 71% 29.94 in 10.0 mi South 4.6 mph - N/A   Clear
11:35 PM 66.6 °F - 55.6 °F 68% 29.95 in 10.0 mi South 3.5 mph - N/A   Clear
11:55 PM 64.0 °F - 55.6 °F 74% 29.95 in 10.0 mi South 5.8 mph - N/A   Clear